This demonstration page uses our WeatherBlox Daily Observations layout. Learn more.

Left ArrowRight Arrow

39.51506, -84.39828

Hourly Observations for February 17, 2017

Temp ( °F °C ) Dew Point ( °F °C ) Humidity (%) Winds ( mph kmh ) Pressure ( in mb ) Visibility ( mi km ) Precip ( " mm )
12:53 am 00:53 Clear 37 2.8 20 -6.7 50 50 SSE 9 15 29.87 1011 10 16 0.00 0.00
1:53 am 01:53 Clear 37 2.8 21 -6.1 52 52 SE 9 15 29.84 1011 10 16 0.00 0.00
2:53 am 02:53 Clear 37 2.8 22 -5.6 54 54 S 8 13 29.82 1010 10 16 0.00 0.00
3:53 am 03:53 Clear 36 2.2 22 -5.6 57 57 S 8 13 29.81 1010 10 16 0.00 0.00
4:53 am 04:53 Partly Cloudy 36 2.2 24 -4.4 62 62 S 8 13 29.80 1009 10 16 0.00 0.00
5:53 am 05:53 Clear 36 2.2 24 -4.4 62 62 S 8 13 29.81 1009 10 16 0.00 0.00
6:53 am 06:53 Clear 35 1.7 24 -4.4 64 64 S 7 11 29.81 1010 10 16 0.00 0.00
7:53 am 07:53 Sunny 36 2.2 25 -3.9 64 64 SSW 7 11 29.82 1010 10 16 0.00 0.00
8:53 am 08:53 Sunny 43 6.1 29 -1.7 58 58 SSW 8 13 29.83 1010 10 16 0.00 0.00
9:53 am 09:53 Sunny 48 8.9 30 -1.1 50 50 SW 13 20 29.82 1010 10 16 0.00 0.00
10:53 am 10:53 Sunny 52 11.1 31 -0.6 45 45 WSW 9 15 29.83 1010 10 16 0.00 0.00
11:53 am 11:53 Sunny 55 12.8 33 0.6 44 44 SW 10 17 29.82 1010 10 16 0.00 0.00
12:53 pm 12:53 Sunny 60 15.6 35 1.7 39 39 SSW 12 19 29.79 1009 10 16 0.00 0.00
1:53 pm 13:53 Sunny 62 16.7 34 1.1 35 35 SW 16 26 29.78 1008 10 16 0.00 0.00
2:53 pm 14:53 Sunny 63 17.2 34 1.1 34 34 SSW 16 26 29.76 1008 10 16 0.00 0.00
3:53 pm 15:53 Sunny 65 18.3 34 1.1 32 32 SW 17 28 29.76 1008 10 16 0.00 0.00
4:53 pm 16:53 Sunny 64 17.8 34 1.1 33 33 SW 14 22 29.76 1008 10 16 0.00 0.00
5:53 pm 17:53 Sunny 63 17.2 34 1.1 34 34 SW 14 22 29.78 1008 10 16 0.00 0.00
6:53 pm 18:53 Clear 60 15.6 34 1.1 38 38 SSW 9 15 29.79 1009 10 16 0.00 0.00
7:53 pm 19:53 Clear 58 14.4 34 1.1 41 41 SSW 9 15 29.80 1009 10 16 0.00 0.00
8:53 pm 20:53 Clear 57 13.9 33 0.6 41 41 SW 9 15 29.81 1009 10 16 0.00 0.00
9:53 pm 21:53 Clear 57 13.9 33 0.6 41 41 SW 10 17 29.81 1010 10 16 0.00 0.00
10:53 pm 22:53 Clear 55 12.8 33 0.6 44 44 SW 10 17 29.82 1010 10 16 0.00 0.00
11:53 pm 23:53 Clear 47 8.3 32 0 56 56 SSW 8 13 29.81 1010 10 16 0.00 0.00

Powered by AerisWeather